This is the latest recevied weather packets stored in our database for station/object KI5UTS-13. If no packets are shown the sender has not sent any weather packets the latest 10 day(s).
| Time | Temp. | Humidity | Pressure | Rain* | Wind** | Luminosity | Snow |
|---|---|---|---|---|---|---|---|
| 1788564011 | 30° C | 82% | 1014.9 hPa | 0 mm | - | 68 W/m² | - |
| 1788563706 | 30° C | 81% | 1014.9 hPa | 0 mm | - | 78 W/m² | - |
| 1788563401 | 30° C | 82% | 1014.9 hPa | 0 mm | - | 128 W/m² | - |
| 1788563100 | 30° C | 82% | 1014.7 hPa | 0 mm | - | 96 W/m² | - |
| 1788562795 | 30.56° C | 81% | 1014.9 hPa | 0 mm | - | 111 W/m² | - |
| 1788562492 | 31.11° C | 76% | 1014.7 hPa | 0 mm | - | 122 W/m² | - |
| 1788562186 | 31.11° C | 76% | 1014.7 hPa | 0 mm | - | 204 W/m² | - |
| 1788561883 | 30.56° C | 76% | 1014.5 hPa | 0 mm | - | 225 W/m² | - |
| 1788561582 | 30.56° C | 77% | 1014.5 hPa | 0 mm | - | 262 W/m² | - |
| 1788561281 | 30.56° C | 77% | 1014.8 hPa | 0 mm | - | 298 W/m² | - |
| 1788560977 | 31.11° C | 76% | 1014.7 hPa | 0 mm | - | 163 W/m² | - |
| 1788560673 | 31.67° C | 75% | 1014.4 hPa | 0 mm | - | 172 W/m² | - |
| 1788560373 | 31.67° C | 74% | 1014.3 hPa | 0 mm | - | 396 W/m² | - |
| 1788560067 | 31.67° C | 74% | 1014.3 hPa | 0 mm | - | 412 W/m² | - |
| 1788559763 | 31.67° C | 75% | 1014.6 hPa | 0 mm | - | 300 W/m² | - |
| 1788559462 | 31.67° C | 76% | 1014.5 hPa | 0 mm | - | 345 W/m² | - |
| 1788559158 | 31.11° C | 76% | 1014.7 hPa | 0 mm | - | 234 W/m² | - |
| 1788558853 | 31.11° C | 77% | 1014.4 hPa | 0 mm | - | 342 W/m² | - |
| 1788558549 | 31.67° C | 77% | 1014.5 hPa | 0 mm | - | 262 W/m² | - |
| 1788558244 | 31.11° C | 77% | 1014.5 hPa | 0 mm | - | 280 W/m² | - |
| 1788557943 | 30.56° C | 77% | 1014.5 hPa | 0 mm | - | 187 W/m² | - |
| 1788557637 | 31.11° C | 75% | 1014.6 hPa | 0 mm | - | 180 W/m² | - |
| 1788557333 | 31.67° C | 74% | 1014.6 hPa | 0 mm | - | 173 W/m² | - |
| 1788557027 | 31.67° C | 74% | 1014.7 hPa | 0 mm | - | 382 W/m² | - |
| 1788556723 | 32.22° C | 72% | 1014.5 hPa | 0 mm | - | 565 W/m² | - |
* Rain latest hour (hover to see other rain measurements)
** Current wind speed in m/s (hover to see current wind gust speed)